Tracking 17558 objects as of 14-February-2016
HD Live streaming from Space Station
objects crossing your sky now

COSMOS 2251 DEB

Track COSMOS 2251 DEB now!
10-day predictions


NORAD ID: 34447
Int'l Code: 1993-036SQ
Perigee: 637.4 km
Apogee: 678.1 km
Inclination: 74.0 °
Period: 97.7 minutes
Semi major axis: 7028 km
RCS: 0.038 m2 (small)
Launch date: June 16, 1993
Source: Commonwealth of Independent States (former USSR) (CIS)
Launch site: PLESETSK MISSILE AND SPACE COMPLEX (PKMTR)

Note: This is SATELLITE DEBRIS
Your satellite tracking list
Your tracking list is empty





NASA's NSSDC Master Catalog

Two Line Element Set (TLE):
1 34447U 93036SQ  16043.96626157 +.00018253 +00000-0 +28021-2 0  9993
2 34447 074.0286 236.1613 0028901 175.0903 335.2108 14.7327838369247
Source of the keplerian elements: AFSPC

N2YO: 490